Location: Newport
(44.6370°N, 124.0520°W)
Time: 15:08:02
(UTC-08:00)

Envisat - Pass Details

Date: 13 October 2017
Orbit: 764 x 766 km, 98.2° (Epoch: 17 December)

Event Time Altitude Azimuth Distance (km) Brightness Sun altitude
Exits shadow 21:17:27 65° 278° (W) 844 3.3 -29.5°
Drops below altitude 10° 21:22:16 10° 341° (NNW) 2,315 5.9 -30.3°
Sets 21:24:37 0° 345° (NNW) 3,246 6.7 -30.7°
